• Join FlightAware (Why Join?)
  • Login
  • US Flag 
03:00AM EST


 

Airport Tracker/Info


-or-


 

Live Flight TrackerFlight Track Log ✈ LXJ262 ✈ 24-Apr-2013 ✈ KATL - KIAD

Flight Track Log - Related Links

Times and Time Zones

All times are in EDT time to prevent confusion due to time zone crossing. See the LXJ262 flight status page for this flight to view local times or setup timezone preferences in your user account.

Time Position Orientation Groundspeed Altitude Reporting Facility
EDT Latitude Longitude Course Direction KTS MPH feet Rate Location/Type
03:02PM 33.6500 -84.4833 301° West 227 261 4,100  Level Atlanta TRACON
03:03PM 33.6833 -84.5500 301° West 249 287 8,000 2,182 Climbing Atlanta TRACON
03:05PM 33.8100 -84.5214 11° North 240 276 10,900 1,765 Climbing Atlanta Center
03:06PM 33.8103 -84.4014 90° East 295 339 13,500 3,050 Climbing Atlanta Center
03:07PM 33.8128 -84.2764 89° East 322 371 17,000 3,300 Climbing Atlanta Center
03:08PM 33.8400 -84.1414 76° East 389 448 20,100 2,550 Climbing Atlanta Center
03:09PM 33.8672 -84.0039 77° East 414 476 22,100 2,200 Climbing Atlanta Center
03:10PM 33.8983 -83.8561 76° East 437 503 24,500 2,350 Climbing Atlanta Center
03:11PM 33.9336 -83.7133 73° East 443 510 26,800 2,050 Climbing Atlanta Center
03:12PM 34.0106 -83.5878 54° Northeast 450 518 28,600 2,350 Climbing Atlanta Center
03:13PM 34.0872 -83.4694 52° Northeast 455 524 31,500 1,700 Climbing Atlanta Center
03:14PM 34.1658 -83.3408 54° Northeast 467 537 32,000 250 Climbing Atlanta Center
03:15PM 34.2403 -83.2222 53° Northeast 484 557 32,000 50 Level Atlanta Center
03:16PM 34.3269 -83.0856 52° Northeast 491 565 32,100 750 Climbing Atlanta Center
03:17PM 34.4053 -82.9536 54° Northeast 485 558 33,500 1,150 Climbing Atlanta Center
03:18PM 34.4875 -82.8192 53° Northeast 490 564 34,400 1,650 Climbing Atlanta Center
03:19PM 34.5758 -82.6892 50° Northeast 490 564 36,800 2,050 Climbing Atlanta Center
03:20PM 34.6639 -82.5411 54° Northeast 496 571 38,500 1,650 Climbing Atlanta Center
03:21PM 34.7475 -82.3956 55° Northeast 508 585 40,100 1,250 Climbing Atlanta Center
03:22PM 34.8333 -82.2597 52° Northeast 508 585 41,000 450 Climbing Atlanta Center
03:23PM 34.9147 -82.1239 54° Northeast 502 578 41,000  Level Atlanta Center
03:24PM 34.9939 -81.9978 53° Northeast 490 564 41,000  Level Atlanta Center
03:25PM 35.0731 -81.8589 55° Northeast 490 564 41,000  Level Atlanta Center
03:26PM 35.1497 -81.7169 57° Northeast 490 564 41,000  Level Atlanta Center
03:27PM 35.2200 -81.5753 59° Northeast 495 570 41,000  Level Atlanta Center
03:28PM 35.2922 -81.4383 57° Northeast 490 564 41,000  Level Atlanta Center
03:29PM 35.3664 -81.2958 57° Northeast 490 564 41,000  Level Atlanta Center
03:30PM 35.4342 -81.1558 59° Northeast 490 564 41,000  Level Atlanta Center
03:31PM 35.5100 -81.0131 57° Northeast 490 564 41,000  Level Atlanta Center
03:32PM 35.5856 -80.8747 56° Northeast 490 564 41,000  Level Atlanta Center
03:33PM 35.6572 -80.7367 57° Northeast 485 558 41,000  Level Atlanta Center
03:34PM 35.7303 -80.5928 58° Northeast 490 564 41,000  Level Atlanta Center
03:35PM 35.7994 -80.4569 58° Northeast 485 558 41,000 -1,158 Level Atlanta Center
03:37PM 35.9383 -80.1867 58° Northeast 483 556 37,700 -2,035 Descending Washington Center
03:38PM 36.0056 -80.0647 56° Northeast 488 562 35,200 -2,350 Descending Washington Center
03:39PM 36.0797 -79.9225 57° Northeast 482 555 33,000 -1,100 Descending Washington Center
03:40PM 36.1625 -79.7703 56° Northeast 477 549 33,000 -250 Level Washington Center
03:41PM 36.2400 -79.6378 54° Northeast 482 555 32,500 -800 Descending Washington Center
03:42PM 36.3178 -79.4950 56° Northeast 482 555 31,400 -950 Descending Washington Center
03:43PM 36.3886 -79.3694 55° Northeast 488 562 30,600 -900 Descending Washington Center
03:44PM 36.4639 -79.2308 56° Northeast 488 562 29,600 -1,050 Descending Washington Center
03:45PM 36.5517 -79.0825 54° Northeast 488 562 28,500 -1,050 Descending Washington Center
03:46PM 36.6308 -78.9436 55° Northeast 483 556 27,500 -1,500 Descending Washington Center
03:47PM 36.7036 -78.8017 57° Northeast 483 556 25,500 -1,250 Descending Washington Center
03:48PM 36.7736 -78.6750 55° Northeast 483 556 25,000 -250 Descending Washington Center
03:49PM 36.8522 -78.5353 55° Northeast 483 556 25,000  Level Washington Center
03:50PM 36.9569 -78.4353 37° Northeast 462 532 25,000 -350 Level Washington Center
03:51PM 37.0694 -78.3511 31° Northeast 440 506 24,300 -800 Descending Washington Center
03:52PM 37.1692 -78.2739 32° Northeast 424 488 23,400 -950 Descending Washington Center
03:53PM 37.2692 -78.1911 33° Northeast 424 488 22,400 -700 Descending Washington Center
03:54PM 37.3542 -78.1208 33° Northeast 417 480 22,000 -200 Descending Washington Center
03:55PM 37.4517 -78.0456 31° Northeast 417 480 22,000  Level Washington Center
03:56PM 37.5492 -77.9650 33° Northeast 417 480 22,000  Level Washington Center
03:57PM 37.6486 -77.8869 32° Northeast 417 480 22,000 -100 Level Washington Center
03:58PM 37.7461 -77.8058 33° Northeast 417 480 21,800 -1,350 Descending Washington Center
03:59PM 37.8436 -77.7269 33° Northeast 417 480 19,300 -2,550 Descending Washington Center
04:00PM 37.9367 -77.6481 34° Northeast 417 480 16,700 -2,450 Descending Washington Center
04:01PM 38.0256 -77.5767 32° Northeast 407 468 14,400 -2,300 Descending Washington Center
04:02PM 38.1078 -77.5128 31° Northeast 370 426 12,100 -2,150 Descending Washington Center
04:03PM 38.1861 -77.4461 34° Northeast 349 402 10,100 -1,050 Descending Washington Center
04:04PM 38.2661 -77.3981 25° Northeast 328 377 10,000 -167 Descending Washington Center
04:06PM 38.3937 -77.3500 North  Level FlightAware Approximate
04:06PM 38.4356 -77.3597 North 307 353 9,600  Level Washington Center
04:07PM 38.5189 -77.3642 358° North 302 348 7,100 -2,400 Descending Washington Center
04:08PM 38.5981 -77.3689 357° North 290 334 4,800 -1,680 Descending Washington Center
04:08PM 38.6333 -77.3667 North 269 310 5,000 158 Climbing Potomac TRACON
04:09PM 38.7000 -77.3667 360° North 279 321 5,000 -496 Level Potomac TRACON
04:10PM 38.7833 -77.3500 North 280 322 4,000 -500 Descending Potomac TRACON
04:11PM 38.8667 -77.3500 360° North 285 328 4,000  Level Potomac TRACON
04:12PM 38.9333 -77.3500 360° North 288 331 4,000 -50 Level Potomac TRACON
04:13PM 39.0167 -77.3500 360° North 252 290 3,900 -500 Descending Potomac TRACON
04:14PM 39.0833 -77.3500 360° North 240 276 3,000 -446 Descending Potomac TRACON
04:15PM 39.1167 -77.3833 322° Northwest 182 209 3,000  Level Potomac TRACON
04:16PM 39.1000 -77.4167 237° Southwest 152 175 3,000 -300 Level Potomac TRACON
04:17PM 39.0500 -77.4333 195° South 152 175 2,400 -800 Descending Potomac TRACON
04:18PM 39.0167 -77.4333 180° South 145 167 1,400 -800 Descending Potomac TRACON
04:19PM 38.9833 -77.4333 180° South 127 146 800 -600 Descending Potomac TRACON
04:21PM 38.9474 -77.4599 191° South  Level Estimated
04:28PM 38.9474 -77.4599 191° South  Level Estimated
04:29PM 38.9474 -77.4599 191° South  Level Estimated
04:30PM 38.9474 -77.4599 191° South  Level Estimated
04:31PM 38.9474 -77.4599 191° South  Level Estimated